Regional Weather Roundup
Issued by NWS Albany, NY

Home | Current Version | Previous Version | Text Only | Print | Product List | Glossary On
Versions: 1 2 3 4 5 6 7 8 9 10 11 12 13 14 15 16 17 18 19 20 21 22 23 24 25 26 27
000
ASUS41 KALY 200110
RWRALY

NEW YORK STATE HOURLY WEATHER ROUNDUP
NATIONAL WEATHER SERVICE ALBANY NY
900 PM EDT WED JUL 19 2017

NOTE: "FAIR" INDICATES FEW OR NO CLOUDS BELOW 12,000 FEET WITH NO
SIGNIFICANT WEATHER AND/OR NO OBSTRUCTIONS TO VISIBILITY.

NYZ032-033-038>043-046>054-057>066-NYZ062>081-082-084-200200-
EAST


CITY           SKY/WX    TMP DP  RH WIND       PRES   REMARKS
ALBANY         CLOUDY    79  63  57 W5        29.98R
GLENS FALLS    PTCLDY    73  67  81 W3        29.96R
POUGHKEEPSIE   PTCLDY    76  63  64 CALM      29.96S
NEWBURGH       PTCLDY    79  64  61 VRB5      30.00R
MONTGOMERY     PTCLDY    75  66  73 CALM      29.99R
WHITE PLAINS   CLEAR     80  65  59 CALM      29.99R
ISLIP          PTCLDY    79  72  79 SW7       29.99R
NEW YORK CITY  PTCLDY    88  68  51 VRB5      29.97R HX  91
CENTRAL PARK   MOCLDY    88  66  48 VRB3      30.01R HX  90
$$

NYZ005>009-017-018-044>046-055-056-200200-
CENTRAL


CITY           SKY/WX    TMP DP  RH WIND       PRES   REMARKS
FULTON         LGT RAIN  76  67  73 NW5       29.99S
SYRACUSE       PTCLDY    79  67  66 W5        29.98S
ROME           CLEAR     75  69  81 CALM      29.99S
ELMIRA         CLEAR     77  69  76 CALM      30.02R
BINGHAMTON     CLEAR     77  64  64 CALM      30.06R
$$

NYZ026>034-041>043-087-200200-
NORTH


CITY           SKY/WX    TMP DP  RH WIND       PRES   REMARKS
WATERTOWN      PTCLDY    73  64  73 SW5       29.97R
FORT DRUM      NOT AVBL
OGDENSBURG     FAIR      71  65  83 CALM      29.94S
MASSENA        PTCLDY    75  68  78 CALM      29.94S
SARANAC LAKE   MOCLDY    70  65  84 W3        30.00S
PLATTSBURGH    CLOUDY    76  66  71 SW3       29.93S
$$

NYZ001>004-010>016-019>021-085-200200-
WEST


CITY           SKY/WX    TMP DP  RH WIND       PRES   REMARKS
NIAGARA FALLS  MOCLDY    81  67  62 SW8       30.00S
BUFFALO        PTCLDY    74  68  81 SW12      30.02S
DUNKIRK        CLEAR     76  64  66 SW9       30.04S
JAMESTOWN      CLEAR     73  54  49 W7        30.09S
WELLSVILLE     CLEAR     74  63  68 W6        30.11R
ROCHESTER      PTCLDY    81  65  58 W9        30.00S
PENN YAN       MOCLDY    75  67  76 CALM      30.03R
$$

             KEY
       WCI = WIND CHILL INDEX
       VSB = VISIBILITY
       HX  = HEAT INDEX
$$




USA.gov is the U.S. government's official web portal to all federal, state and local government web resources and services.